User: anonymous   Login
Location: Unspecified
(0.0000°N, 0.0000°E)
Time: 02:25:31
(UTC+00:00)
Language:

GOMX4-A - Orbit

View from above orbital plane
View from above orbital plane
View from above satellite
View from above satellite

Ground track
Ground track

The orbit data is extracted from the following two-line orbital elements,

1 43197U 18015F   18267.78368612 +.00000606 +00000-0 +28008-4 0  9998
2 43197 097.3590 034.7517 0019569 162.8868 301.3821 15.23762975035705
Epoch (UTC): 24 September 2018 18:48:30
Eccentricity: 0.0019569
inclination: 97.3590°
perigee height: 481 km
apogee height: 508 km
right ascension of ascending node: 34.7517°
argument of perigee: 162.8868°
revolutions per day: 15.23762975
mean anomaly at epoch: 301.3821°
orbit number at epoch: 3570

The dashed part of the orbit path shows where the satellite is in the earth's shadow,  

DLR